This is the latest recevied weather packets stored in our database for station/object DL4ABR-6. If no packets are shown the sender has not sent any weather packets the latest 10 day(s).
| Time | Temp. | Humidity | Pressure | Rain* | Wind** | Luminosity | Snow |
|---|---|---|---|---|---|---|---|
| 1788551780 | 16.11° C | 98% | 1006.5 hPa | 15.75 mm | - | - | - |
| 1788550930 | 16.11° C | 99% | 1006.6 hPa | 15.75 mm | - | - | - |
| 1788550059 | 16.11° C | 99% | 1006.4 hPa | 15.75 mm | - | - | - |
| 1788549310 | 16.11° C | 99% | 1006.1 hPa | 15.75 mm | - | - | - |
| 1788548505 | 16.11° C | 99% | 1005.8 hPa | 15.75 mm | - | - | - |
| 1788547683 | 16.11° C | 99% | 1005.9 hPa | 15.75 mm | - | - | - |
| 1788546900 | 16.11° C | 99% | 1005.8 hPa | 15.75 mm | - | - | - |
| 1788546125 | 16.11° C | 99% | 1005.9 hPa | 15.75 mm | - | - | - |
| 1788545245 | 16.11° C | 99% | 1005.7 hPa | 15.75 mm | - | - | - |
| 1788544525 | 16.11° C | 99% | 1005.3 hPa | 15.75 mm | - | - | - |
| 1788543699 | 16.67° C | 99% | 1005 hPa | 15.75 mm | - | - | - |
| 1788542825 | 16.67° C | 99% | 1004.7 hPa | 15.75 mm | - | - | - |
| 1788542055 | 16.67° C | 99% | 1004.5 hPa | 15.75 mm | - | - | - |
| 1788541270 | 16.67° C | 99% | 1004.4 hPa | 15.75 mm | - | - | - |
| 1788540470 | 16.67° C | 99% | 1004.7 hPa | 15.75 mm | - | - | - |
| 1788539730 | 16.11° C | 99% | 1004.4 hPa | 15.75 mm | - | - | - |
| 1788538979 | 16.11° C | 99% | 1004 hPa | 15.75 mm | - | - | - |
| 1788538235 | 16.11° C | 98% | 1004.2 hPa | 15.24 mm | - | - | - |
| 1788537400 | 16.11° C | 98% | 1004.1 hPa | 12.95 mm | - | - | - |
| 1788536515 | 16.67° C | 98% | 1004.1 hPa | 12.19 mm | - | - | - |
| 1788535665 | 16.67° C | 98% | 1004.2 hPa | 11.94 mm | - | - | - |
| 1788534839 | 16.67° C | 97% | 1004.4 hPa | 11.18 mm | - | - | - |
| 1788533960 | 17.22° C | 97% | 1004.3 hPa | 10.67 mm | - | - | - |
| 1788533070 | 17.22° C | 97% | 1004.2 hPa | 10.41 mm | - | - | - |
| 1788532215 | 17.78° C | 97% | 1004.3 hPa | 9.65 mm | - | - | - |
* Rain since midnight (hover to see other rain measurements)
** Current wind speed in m/s (hover to see current wind gust speed)